This is the latest recevied weather packets stored in our database for station/object G0TGD-10. If no packets are shown the sender has not sent any weather packets the latest 1 day(s).
| Time | Temp. | Humidity | Pressure | Rain* | Wind** | Luminosity | Snow |
|---|---|---|---|---|---|---|---|
| 1777703748 | 10.56° C | 69% | 1016.8 hPa | - | - | - | - |
| 1777702848 | 10.56° C | 68% | 1016.9 hPa | - | - | - | - |
| 1777701948 | 10° C | 69% | 1016.6 hPa | - | - | - | - |
| 1777701048 | 9.44° C | 70% | 1016.7 hPa | - | - | - | - |
| 1777700148 | 8.89° C | 70% | 1016.7 hPa | - | - | - | - |
| 1777699248 | 8.89° C | 70% | 1016.7 hPa | - | - | - | - |
| 1777698348 | 8.89° C | 71% | 1016.6 hPa | - | - | - | - |
| 1777697448 | 8.89° C | 72% | 1016.6 hPa | - | - | - | - |
| 1777696547 | 8.89° C | 72% | 1016.5 hPa | - | - | - | - |
| 1777695647 | 8.89° C | 70% | 1016.5 hPa | - | - | - | - |
| 1777694747 | 8.89° C | 67% | 1016.5 hPa | - | - | - | - |
| 1777693950 | 9.44° C | 67% | 1016.5 hPa | - | - | - | - |
| 1777693847 | 9.44° C | 67% | 1016.5 hPa | - | - | - | - |
| 1777692947 | 10° C | 67% | 1016.5 hPa | - | - | - | - |
| 1777692047 | 10.56° C | 67% | 1016.7 hPa | - | - | - | - |
| 1777691147 | 11.11° C | 67% | 1016.6 hPa | - | - | - | - |
| 1777690247 | 11.11° C | 66% | 1016.7 hPa | - | - | - | - |
| 1777689347 | 11.67° C | 66% | 1016.7 hPa | - | - | - | - |
| 1777688447 | 12.22° C | 65% | 1016.7 hPa | - | - | - | - |
| 1777687547 | 12.78° C | 64% | 1016.9 hPa | - | - | - | - |
| 1777686647 | 12.78° C | 65% | 1016.9 hPa | - | - | - | - |
| 1777685746 | 12.78° C | 65% | 1017.2 hPa | - | - | - | - |
* Rain since midnight (hover to see other rain measurements)
** Current wind speed in m/s (hover to see current wind gust speed)